CW1936 Heraklion Crete GR current weather conditions

sailwx.info

Wind from 260

Air temperature 13.9° C
Dewpoint 9.3° C

Last reported at 2020-Jan-26 07:00 UTC.
Time now 2020-Jan-26 07:53 UTC

Location: N 35°22' E 025°02'.
View on Google Maps.

See reports from other nearby stations

  
Tides and Currents Weather Stations Pressure Air Temp Water Temp Dewpoint Dewpoint Depression Visibility Wind Speed Wind Dir Waves Ship Positions
date/time (UTC)wind fromknots sea level pressurealtimeterstation pressurevisibilityair tempwater tempwave heightnotes
2020-Jan-26 07:00 260 13.9
2020-Jan-26 06:45 259 12.8
2020-Jan-26 06:31 259 12.8
2020-Jan-26 06:15 259 10.6
2020-Jan-26 06:00 259 9.4
2020-Jan-26 05:45 259 8.9
2020-Jan-26 05:30 259 8.3
2020-Jan-26 05:16 259 8.3
2020-Jan-26 05:00 259 8.9
2020-Jan-26 04:45 259 8.9
2020-Jan-26 04:30 259 8.9
2020-Jan-26 04:15 259 8.9
2020-Jan-26 04:00 259 8.9
2020-Jan-26 03:46 264 8.3
2020-Jan-26 03:30 264 8.3
2020-Jan-26 03:15 264 8.3
2020-Jan-26 03:00 264 8.3
2020-Jan-26 02:45 264 8.3
2020-Jan-26 02:30 264 8.3
2020-Jan-26 02:15 264 8.3
2020-Jan-26 02:00 264 8.3
2020-Jan-26 01:45 264 8.3
2020-Jan-26 01:30 355 8.3
2020-Jan-26 01:15 003 8.9
2020-Jan-26 01:03 003 9.4
2020-Jan-26 00:49 269 8.9
2020-Jan-26 00:33 259 8.3
2020-Jan-26 00:17 259 8.3
2020-Jan-26 00:02 259 8.3
2020-Jan-25 23:49 259 8.3
2020-Jan-25 23:31 259 8.3
2020-Jan-25 23:17 253 8.3
2020-Jan-25 23:02 253 8.3
2020-Jan-25 22:45 253 8.3
2020-Jan-25 22:31 253 8.3
2020-Jan-25 22:15 253 8.3
2020-Jan-25 22:01 253 8.3
2020-Jan-25 21:47 253 8.3
2020-Jan-25 21:32 253 8.9
2020-Jan-25 21:16 278 8.9
2020-Jan-25 21:01 259 0 gusting 2 8.9
2020-Jan-25 20:46 273 8.9
2020-Jan-25 20:31 259 8.3
2020-Jan-25 20:16 250 8.9
2020-Jan-25 20:01 297 8.9
2020-Jan-25 19:46 288 8.3
2020-Jan-25 19:31 248 8.9
2020-Jan-25 19:16 263 8.9
2020-Jan-25 19:01 263 8.9
2020-Jan-25 18:46 263 9.4
2020-Jan-25 18:30 281 10.0
2020-Jan-25 18:16 294 9.4
2020-Jan-25 18:01 261 9.4
2020-Jan-25 17:45 254 0 gusting 0 9.4
2020-Jan-25 17:31 255 0 gusting 2 9.4
2020-Jan-25 17:16 245 0 gusting 1 10.0
2020-Jan-25 17:01 253 10.0
2020-Jan-25 16:45 269 10.0
2020-Jan-25 16:30 244 10.0
2020-Jan-25 16:17 242 0 gusting 2 10.0
2020-Jan-25 16:00 259 0 gusting 2 10.6
2020-Jan-25 15:45 252 10.6
2020-Jan-25 15:31 262 11.1
2020-Jan-25 15:16 072 11.7
2020-Jan-25 15:00 075 11.7
2020-Jan-25 14:47 076 12.8
2020-Jan-25 14:30 076 13.3
2020-Jan-25 14:15 075 14.4
2020-Jan-25 14:00 076 15.0
2020-Jan-25 13:46 076 15.0
2020-Jan-25 13:30 076 15.0
2020-Jan-25 13:15 079 15.0
2020-Jan-25 13:00 063 15.0
2020-Jan-25 12:45 070 15.0
2020-Jan-25 12:30 063 15.0
2020-Jan-25 12:15 067 15.0
2020-Jan-25 12:00 080 15.0
2020-Jan-25 11:45 356 15.0
2020-Jan-25 11:30 101 15.0
2020-Jan-25 11:15 060 15.0
2020-Jan-25 11:00 060 15.0
2020-Jan-25 10:45 077 15.0
2020-Jan-25 10:30 032 15.0
2020-Jan-25 10:15 089 15.0
2020-Jan-25 10:00 048 15.0
2020-Jan-25 09:45 099 14.4
2020-Jan-25 09:33 089 14.4
2020-Jan-25 09:16 094 14.4
2020-Jan-25 09:01 092 13.9
2020-Jan-25 08:47 084 0 gusting 2 13.3
2020-Jan-25 08:34 075 1 gusting 4 13.3
2020-Jan-25 08:17 076 0 gusting 4 12.8
2020-Jan-25 08:02 063 1 gusting 4 12.8
2020-Jan-25 07:46 106 1 gusting 4 12.8
2020-Jan-25 07:31 127 2 gusting 3 12.8
2020-Jan-25 07:16 105 0 gusting 3 12.8
2020-Jan-25 07:02 113 0 gusting 3 12.8
2020-Jan-25 06:46 117 12.2
2020-Jan-25 06:31 240 11.7
2020-Jan-25 06:16 248 9.4
2020-Jan-25 06:01 234 7.8
2020-Jan-25 05:45 261 6.7
2020-Jan-25 05:30 261 6.1
2020-Jan-25 05:16 261 6.1
2020-Jan-25 05:01 261 6.1
2020-Jan-25 04:47 261 6.1
2020-Jan-25 04:30 259 6.1
2020-Jan-25 04:15 259 6.1
2020-Jan-25 04:01 259 6.1
2020-Jan-25 03:45 259 6.1
2020-Jan-25 03:15 256 6.7
2020-Jan-25 03:01 252 6.7
2020-Jan-25 02:45 255 6.7
2020-Jan-25 02:31 278 6.7
2020-Jan-25 02:15 252 7.2
2020-Jan-25 02:00 253 7.2
2020-Jan-25 01:45 276 7.2
2020-Jan-25 01:30 295 7.2
2020-Jan-25 01:15 289 7.2
2020-Jan-25 01:00 269 6.7
2020-Jan-25 00:45 254 6.7
2020-Jan-25 00:30 253 7.2
2020-Jan-25 00:15 238 0 gusting 3 7.8
2020-Jan-25 00:00 254 0 gusting 1 7.8
2020-Jan-24 23:47 259 7.2
2020-Jan-24 23:31 271 7.8
2020-Jan-24 23:18 261 8.3
2020-Jan-24 22:46 271 0 gusting 4 8.3
2020-Jan-24 22:33 272 8.3
2020-Jan-24 22:16 283 8.3
2020-Jan-24 21:46 290 0 gusting 4 8.3
2020-Jan-24 21:32 288 8.3
2020-Jan-24 21:16 221 0 gusting 5 8.3
2020-Jan-24 21:01 264 0 gusting 5 8.3
2020-Jan-24 20:47 286 0 gusting 4 8.3
2020-Jan-24 20:31 244 1 gusting 6 8.3
2020-Jan-24 20:16 273 1 gusting 4 8.9
2020-Jan-24 20:01 272 8.9
2020-Jan-24 19:46 268 0 gusting 4 8.9
2020-Jan-24 19:31 279 8.3
2020-Jan-24 19:16 295 0 gusting 3 8.3
2020-Jan-24 19:02 273 7.8
2020-Jan-24 18:45 269 7.8
2020-Jan-24 18:31 283 7.8
2020-Jan-24 18:17 294 7.8
2020-Jan-24 18:01 267 7.8
2020-Jan-24 17:47 267 7.8
2020-Jan-24 17:31 222 7.8
2020-Jan-24 17:16 279 7.8
2020-Jan-24 17:01 263 7.8
2020-Jan-24 16:31 309 8.3
2020-Jan-24 16:16 284 8.9
2020-Jan-24 16:02 264 8.9
2020-Jan-24 15:46 266 9.4
2020-Jan-24 15:31 258 10.0
2020-Jan-24 15:16 274 10.0
2020-Jan-24 15:00 001 0 gusting 4 10.6
2020-Jan-24 14:45 271 10.6
2020-Jan-24 14:31 352 0 gusting 5 11.1
2020-Jan-24 14:15 037 11.7
2020-Jan-24 14:00 306 11.7
2020-Jan-24 13:46 335 0 gusting 6 11.7
2020-Jan-24 13:30 044 12.2
2020-Jan-24 13:15 025 12.2
2020-Jan-24 13:00 211 1 gusting 7 12.8
2020-Jan-24 12:45 032 12.8
2020-Jan-24 12:30 251 0 gusting 2 12.2
2020-Jan-24 12:15 011 1 gusting 6 12.2
2020-Jan-24 12:00 030 0 gusting 8 12.8
2020-Jan-24 11:46 045 1 gusting 9 12.8
2020-Jan-24 11:30 301 1 gusting 6 13.3
2020-Jan-24 11:15 065 1 gusting 9 12.8
2020-Jan-24 11:00 349 3 gusting 8 12.8
2020-Jan-24 10:45 032 3 gusting 10 12.8
2020-Jan-24 10:30 051 3 gusting 9 12.8
2020-Jan-24 10:15 076 3 gusting 10 12.8
2020-Jan-24 10:00 336 1 gusting 7 12.8
2020-Jan-24 09:45 070 1 gusting 8 12.8
2020-Jan-24 09:30 285 1 gusting 7 12.8
2020-Jan-24 09:15 323 1 gusting 9 12.8
2020-Jan-24 09:00 295 3 gusting 7 12.2
2020-Jan-24 08:45 328 1 gusting 10 12.2
2020-Jan-24 08:30 006 0 gusting 8 12.8
2020-Jan-24 08:18 335 1 gusting 7 12.8
2020-Jan-24 08:15 046 1 gusting 7 12.8
2020-Jan-24 08:02 126 2 gusting 11 12.8
2020-Jan-24 07:49 084 0 gusting 7 12.8
2020-Jan-24 07:33 120 1 gusting 8 12.2
2020-Jan-24 07:01 011 0 gusting 6 11.7